QPF
0.06 0.04 0.03 0.04 0.04 0.04 0.05 0.07 0.07 0.05 0.03 0.03 0.02 0.02 0.02 0.02 0.01 0.01 0.02 0.01 0.00 0.00 0.00 0.01 0.01 0.02 0.03 0.03 0.04 0.06 0.06 0.07 0.07 0.07 0.06 0.06 0.06 0.07
0.04 0.03 0.03 0.04 0.04 0.04 0.04 0.06 0.06 0.06 0.04 0.03 0.03 0.03 0.02 0.01 0.01 0.01 0.01 0.01 0.00 0.00 0.01 0.01 0.01 0.02 0.03 0.03 0.04 0.04 0.04 0.04 0.03 0.02 0.02 0.03 0.05 0.06
0.04 0.04 0.04 0.05 0.06 0.05 0.06 0.06 0.06 0.07 0.06 0.05 0.04 0.03 0.02 0.02 0.02 0.02 0.02 0.01 0.01 0.01 0.01 0.01 0.01 0.01 0.02 0.02 0.02 0.02 0.03 0.03 0.03 0.02 0.02 0.02 0.03 0.05
0.02 0.03 0.04 0.06 0.06 0.07 0.06 0.06 0.06 0.07 0.07 0.05 0.04 0.03 0.03 0.03 0.03 0.03 0.02 0.02 0.01 0.01 0.01 0.01 0.01 0.01 0.00 0.01 0.01 0.01 0.02 0.02 0.03 0.02 0.02 0.02 0.02 0.03
0.02 0.01 0.01 0.02 0.03 0.04 0.04 0.04 0.05 0.05 0.05 0.04 0.04 0.04 0.03 0.03 0.03 0.03 0.03 0.02 0.01 0.01 0.00 0.00 0.00 0.00 0.00 0.00 0.00 0.00 0.00 0.00 0.01 0.01 0.02 0.02 0.01 0.01
0.02 0.02 0.02 0.02 0.03 0.04 0.04 0.06 0.07 0.08 0.08 0.06 0.06 0.05 0.04 0.04 0.04 0.04 0.05 0.04 0.03 0.01 0.01 0.01 0.01 0.00 0.00 0.00 0.00 0.00 0.00 0.00 0.00 0.00 0.00 0.01 0.01 0.01
0.02 0.01 0.02 0.03 0.04 0.05 0.04 0.05 0.05 0.05 0.05 0.05 0.05 0.04 0.04 0.06 0.06 0.05 0.05 0.05 0.04 0.02 0.02 0.02 0.01 0.01 0.01 0.01 0.00 0.00 0.00 0.00 0.00 0.00 0.00 0.00 0.00 0.01
0.01 0.01 0.01 0.02 0.02 0.02 0.02 0.02 0.03 0.03 0.04 0.04 0.05 0.05 0.05 0.08 0.08 0.07 0.06 0.06 0.06 0.04 0.03 0.03 0.02 0.02 0.02 0.01 0.01 0.00 0.00 0.00 0.00 0.00 0.00 0.01 0.01 0.01
0.02 0.01 0.01 0.01 0.01 0.01 0.02 0.01 0.01 0.03 0.04 0.04 0.05 0.06 0.06 0.06 0.06 0.06 0.06 0.05 0.04 0.03 0.03 0.03 0.03 0.03 0.02 0.02 0.02 0.01 0.01 0.00 0.00 0.00 0.00 0.01 0.01 0.02
0.02 0.02 0.01 0.02 0.01 0.01 0.01 0.01 0.02 0.02 0.02 0.02 0.04 0.05 0.05 0.05 0.05 0.04 0.05 0.04 0.04 0.04 0.03 0.03 0.03 0.03 0.03 0.03 0.03 0.02 0.01 0.01 0.00 0.00 0.01 0.01 0.02 0.02
0.01 0.01 0.02 0.02 0.02 0.02 0.02 0.02 0.02 0.03 0.03 0.03 0.05 0.06 0.06 0.06 0.05 0.05 0.05 0.05 0.05 0.05 0.03 0.04 0.04 0.05 0.05 0.04 0.04 0.03 0.02 0.01 0.01 0.01 0.01 0.02 0.03 0.02
0.01 0.01 0.02 0.03 0.04 0.03 0.03 0.03 0.03 0.04 0.04 0.05 0.05 0.05 0.04 0.05 0.06 0.05 0.04 0.05 0.05 0.04 0.04 0.03 0.04 0.05 0.05 0.04 0.04 0.03 0.03 0.02 0.02 0.02 0.02 0.02 0.03 0.02
0.02 0.02 0.02 0.03 0.02 0.02 0.02 0.02 0.03 0.03 0.04 0.05 0.06 0.07 0.08 0.09 0.09 0.08 0.05 0.05 0.05 0.05 0.05 0.04 0.05 0.05 0.05 0.04 0.04 0.04 0.03 0.03 0.03 0.02 0.01 0.01 0.02 0.01
0.02 0.02 0.03 0.02 0.02 0.02 0.02 0.02 0.03 0.03 0.03 0.04 0.06 0.07 0.09 0.11 0.13 0.13 0.11 0.10 0.08 0.07 0.06 0.05 0.05 0.05 0.05 0.05 0.05 0.04 0.04 0.04 0.03 0.03 0.03 0.02 0.02 0.02
0.01 0.01 0.01 0.01 0.01 0.01 0.02 0.02 0.02 0.02 0.02 0.03 0.04 0.05 0.07 0.09 0.10 0.11 0.12 0.12 0.12 0.11 0.08 0.06 0.06 0.06 0.05 0.05 0.04 0.03 0.03 0.03 0.03 0.02 0.02 0.02 0.02 0.02
0.01 0.01 0.01 0.01 0.01 0.01 0.01 0.01 0.01 0.02 0.02 0.03 0.03 0.04 0.05 0.06 0.07 0.08 0.10 0.11 0.10 0.09 0.07 0.05 0.06 0.06 0.06 0.04 0.03 0.03 0.03 0.03 0.02 0.02 0.02 0.02 0.02 0.02
0.01 0.01 0.01 0.01 0.01 0.01 0.01 0.01 0.01 0.02 0.02 0.02 0.02 0.02 0.03 0.04 0.04 0.05 0.06 0.07 0.07 0.06 0.05 0.05 0.06 0.06 0.05 0.04 0.04 0.03 0.03 0.02 0.02 0.02 0.02 0.02 0.02 0.02
0.01 0.01 0.01 0.01 0.01 0.02 0.02 0.02 0.02 0.02 0.02 0.02 0.02 0.03 0.02 0.02 0.03 0.03 0.04 0.05 0.05 0.04 0.04 0.04 0.05 0.05 0.05 0.04 0.04 0.04 0.03 0.03 0.02 0.02 0.02 0.02 0.02 0.02
0.02 0.01 0.01 0.01 0.01 0.01 0.01 0.02 0.02 0.02 0.02 0.02 0.02 0.02 0.02 0.02 0.03 0.03 0.04 0.04 0.04 0.03 0.04 0.04 0.04 0.05 0.04 0.03 0.03 0.03 0.03 0.03 0.03 0.03 0.02 0.02 0.03 0.04
0.02 0.02 0.02 0.02 0.02 0.01 0.01 0.01 0.01 0.01 0.01 0.01 0.01 0.01 0.02 0.03 0.04 0.04 0.04 0.04 0.03 0.03 0.04 0.04 0.04 0.03 0.04 0.04 0.04 0.04 0.04 0.04 0.03 0.03 0.03 0.02 0.02 0.02
0.02 0.03 0.03 0.02 0.02 0.02 0.01 0.01 0.01 0.01 0.02 0.01 0.01 0.02 0.02 0.03 0.03 0.03 0.03 0.03 0.03 0.03 0.04 0.05 0.05 0.04 0.05 0.05 0.05 0.04 0.04 0.04 0.04 0.04 0.04 0.03 0.02 0.02
0.02 0.02 0.02 0.02 0.02 0.02 0.02 0.02 0.03 0.03 0.03 0.03 0.03 0.04 0.03 0.03 0.03 0.02 0.03 0.04 0.05 0.05 0.04 0.05 0.06 0.06 0.06 0.06 0.06 0.05 0.05 0.05 0.04 0.04 0.03 0.03 0.03 0.02
0.02 0.02 0.02 0.02 0.01 0.01 0.01 0.02 0.03 0.04 0.03 0.03 0.03 0.03 0.03 0.02 0.02 0.03 0.04 0.05 0.05 0.04 0.03 0.03 0.04 0.04 0.05 0.05 0.06 0.06 0.05 0.05 0.05 0.04 0.03 0.03 0.02 0.02
MSLP
1016.03 1016.08 1016.16 1016.25 1016.33 1016.35 1016.31 1016.17 1015.94 1015.65 1015.33 1015.02 1014.77 1014.62 1014.58 1014.66 1014.84 1015.08 1015.34 1015.57 1015.74 1015.83 1015.83 1015.75 1015.60 1015.42 1015.21 1015.00 1014.78 1014.56 1014.33 1014.10 1013.86 1013.64 1013.45 1013.32 1013.27 1013.31
1015.66 1015.66 1015.71 1015.78 1015.85 1015.90 1015.89 1015.80 1015.64 1015.41 1015.15 1014.90 1014.68 1014.54 1014.50 1014.55 1014.68 1014.87 1015.08 1015.27 1015.43 1015.53 1015.57 1015.56 1015.50 1015.42 1015.31 1015.18 1015.03 1014.85 1014.64 1014.40 1014.14 1013.88 1013.64 1013.46 1013.36 1013.36
1015.28 1015.25 1015.27 1015.33 1015.41 1015.48 1015.52 1015.49 1015.40 1015.24 1015.05 1014.85 1014.67 1014.53 1014.47 1014.48 1014.55 1014.66 1014.80 1014.95 1015.08 1015.17 1015.24 1015.29 1015.31 1015.32 1015.32 1015.29 1015.23 1015.12 1014.96 1014.75 1014.50 1014.23 1013.97 1013.76 1013.62 1013.57
1014.90 1014.86 1014.87 1014.93 1015.03 1015.13 1015.21 1015.25 1015.22 1015.14 1015.02 1014.87 1014.71 1014.59 1014.50 1014.46 1014.46 1014.50 1014.56 1014.63 1014.71 1014.78 1014.85 1014.92 1015.00 1015.08 1015.16 1015.23 1015.26 1015.25 1015.17 1015.02 1014.82 1014.58 1014.33 1014.11 1013.96 1013.89
1014.53 1014.49 1014.51 1014.58 1014.70 1014.84 1014.96 1015.05 1015.09 1015.08 1015.01 1014.91 1014.80 1014.68 1014.57 1014.49 1014.43 1014.39 1014.37 1014.36 1014.36 1014.37 1014.41 1014.47 1014.56 1014.68 1014.82 1014.96 1015.08 1015.16 1015.18 1015.12 1015.00 1014.84 1014.64 1014.47 1014.33 1014.26
1014.15 1014.12 1014.15 1014.25 1014.39 1014.56 1014.72 1014.86 1014.96 1015.00 1015.00 1014.95 1014.87 1014.77 1014.66 1014.55 1014.45 1014.34 1014.24 1014.15 1014.06 1014.00 1013.97 1013.98 1014.05 1014.16 1014.32 1014.51 1014.70 1014.86 1014.98 1015.04 1015.04 1014.98 1014.88 1014.78 1014.69 1014.66
1013.73 1013.72 1013.78 1013.89 1014.06 1014.25 1014.45 1014.63 1014.76 1014.86 1014.90 1014.90 1014.86 1014.79 1014.70 1014.59 1014.47 1014.32 1014.16 1014.00 1013.84 1013.69 1013.57 1013.51 1013.52 1013.59 1013.73 1013.93 1014.16 1014.40 1014.62 1014.80 1014.93 1015.00 1015.04 1015.04 1015.04 1015.07
1013.24 1013.27 1013.35 1013.49 1013.68 1013.89 1014.11 1014.31 1014.48 1014.61 1014.69 1014.73 1014.74 1014.71 1014.65 1014.57 1014.45 1014.30 1014.11 1013.90 1013.68 1013.46 1013.27 1013.12 1013.05 1013.07 1013.17 1013.35 1013.60 1013.89 1014.20 1014.49 1014.75 1014.96 1015.13 1015.26 1015.37 1015.48
1012.69 1012.75 1012.87 1013.04 1013.25 1013.48 1013.71 1013.93 1014.11 1014.25 1014.36 1014.43 1014.48 1014.49 1014.48 1014.43 1014.35 1014.23 1014.05 1013.84 1013.59 1013.33 1013.08 1012.87 1012.73 1012.68 1012.72 1012.88 1013.12 1013.44 1013.80 1014.19 1014.56 1014.90 1015.20 1015.46 1015.68 1015.88
1012.08 1012.19 1012.36 1012.57 1012.81 1013.06 1013.29 1013.51 1013.68 1013.83 1013.94 1014.03 1014.09 1014.15 1014.18 1014.19 1014.16 1014.09 1013.96 1013.78 1013.55 1013.29 1013.02 1012.78 1012.59 1012.49 1012.49 1012.60 1012.83 1013.14 1013.54 1013.97 1014.42 1014.86 1015.26 1015.63 1015.95 1016.23
1011.46 1011.64 1011.87 1012.14 1012.41 1012.68 1012.92 1013.13 1013.29 1013.41 1013.50 1013.58 1013.65 1013.72 1013.79 1013.85 1013.88 1013.88 1013.82 1013.71 1013.54 1013.32 1013.08 1012.85 1012.65 1012.52 1012.49 1012.56 1012.76 1013.05 1013.44 1013.89 1014.37 1014.85 1015.32 1015.76 1016.15 1016.51
1010.88 1011.16 1011.47 1011.80 1012.13 1012.42 1012.67 1012.86 1012.99 1013.08 1013.13 1013.18 1013.23 1013.29 1013.37 1013.46 1013.55 1013.62 1013.64 1013.62 1013.53 1013.40 1013.22 1013.04 1012.87 1012.75 1012.70 1012.75 1012.91 1013.16 1013.52 1013.94 1014.40 1014.89 1015.38 1015.84 1016.27 1016.67
1010.39 1010.77 1011.18 1011.60 1011.98 1012.31 1012.56 1012.73 1012.83 1012.88 1012.88 1012.88 1012.88 1012.92 1012.99 1013.09 1013.22 1013.34 1013.44 1013.50 1013.52 1013.48 1013.40 1013.29 1013.18 1013.10 1013.06 1013.10 1013.22 1013.44 1013.73 1014.10 1014.52 1014.96 1015.42 1015.87 1016.31 1016.72
1009.98 1010.48 1011.00 1011.50 1011.95 1012.31 1012.58 1012.74 1012.81 1012.81 1012.77 1012.71 1012.67 1012.66 1012.70 1012.80 1012.93 1013.09 1013.25 1013.39 1013.49 1013.56 1013.57 1013.56 1013.53 1013.50 1013.50 1013.54 1013.64 1013.81 1014.05 1014.34 1014.69 1015.07 1015.46 1015.87 1016.28 1016.68
1009.65 1010.26 1010.87 1011.45 1011.95 1012.36 1012.64 1012.80 1012.86 1012.84 1012.76 1012.65 1012.57 1012.52 1012.53 1012.60 1012.73 1012.90 1013.09 1013.29 1013.46 1013.61 1013.72 1013.80 1013.85 1013.89 1013.94 1014.00 1014.10 1014.23 1014.42 1014.64 1014.91 1015.21 1015.53 1015.88 1016.24 1016.61
1009.34 1010.04 1010.72 1011.35 1011.90 1012.33 1012.64 1012.82 1012.88 1012.86 1012.77 1012.65 1012.55 1012.48 1012.46 1012.51 1012.63 1012.80 1013.00 1013.23 1013.45 1013.66 1013.84 1014.00 1014.12 1014.23 1014.33 1014.42 1014.53 1014.65 1014.80 1014.97 1015.17 1015.40 1015.65 1015.93 1016.24 1016.57
1008.99 1009.73 1010.44 1011.09 1011.66 1012.12 1012.45 1012.66 1012.76 1012.77 1012.71 1012.63 1012.54 1012.49 1012.48 1012.52 1012.63 1012.79 1013.00 1013.23 1013.47 1013.71 1013.94 1014.14 1014.33 1014.49 1014.64 1014.78 1014.91 1015.04 1015.18 1015.32 1015.49 1015.66 1015.86 1016.09 1016.35 1016.64
1008.54 1009.26 1009.96 1010.60 1011.16 1011.62 1011.98 1012.24 1012.40 1012.48 1012.50 1012.50 1012.48 1012.49 1012.52 1012.59 1012.71 1012.87 1013.07 1013.29 1013.53 1013.78 1014.02 1014.25 1014.47 1014.68 1014.87 1015.05 1015.22 1015.37 1015.53 1015.68 1015.83 1015.98 1016.15 1016.35 1016.57 1016.83
1007.95 1008.62 1009.25 1009.84 1010.38 1010.84 1011.22 1011.53 1011.77 1011.96 1012.10 1012.22 1012.32 1012.42 1012.53 1012.67 1012.82 1013.00 1013.19 1013.40 1013.63 1013.86 1014.09 1014.33 1014.56 1014.79 1015.02 1015.23 1015.44 1015.63 1015.81 1015.99 1016.15 1016.32 1016.48 1016.67 1016.87 1017.10
1007.24 1007.81 1008.36 1008.88 1009.36 1009.81 1010.21 1010.58 1010.92 1011.23 1011.51 1011.77 1012.02 1012.25 1012.47 1012.69 1012.90 1013.11 1013.32 1013.52 1013.73 1013.94 1014.15 1014.37 1014.60 1014.83 1015.07 1015.31 1015.55 1015.78 1016.00 1016.21 1016.40 1016.59 1016.78 1016.97 1017.17 1017.39
1006.46 1006.92 1007.37 1007.80 1008.23 1008.65 1009.08 1009.50 1009.93 1010.36 1010.78 1011.19 1011.58 1011.95 1012.30 1012.62 1012.90 1013.15 1013.38 1013.59 1013.78 1013.97 1014.16 1014.35 1014.56 1014.78 1015.02 1015.27 1015.52 1015.78 1016.03 1016.27 1016.50 1016.72 1016.93 1017.14 1017.35 1017.58
1005.66 1006.02 1006.37 1006.73 1007.10 1007.51 1007.94 1008.41 1008.91 1009.44 1009.97 1010.51 1011.04 1011.53 1011.99 1012.39 1012.75 1013.06 1013.32 1013.53 1013.72 1013.90 1014.07 1014.24 1014.42 1014.62 1014.84 1015.08 1015.34 1015.60 1015.87 1016.13 1016.38 1016.63 1016.86 1017.09 1017.32 1017.56
1004.89 1005.18 1005.47 1005.77 1006.11 1006.50 1006.94 1007.44 1007.98 1008.57 1009.18 1009.80 1010.41 1010.99 1011.52 1012.00 1012.42 1012.77 1013.06 1013.31 1013.51 1013.68 1013.84 1013.99 1014.16 1014.34 1014.53 1014.75 1014.99 1015.24 1015.49 1015.76 1016.02 1016.28 1016.53 1016.78 1017.02 1017.27
Thickness
5753 5752 5751 5751 5749 5748 5746 5742 5735 5731 5732 5733 5731 5730 5727 5723 5719 5717 5714 5709 5706 5703 5700 5697 5694 5691 5688 5686 5684 5682 5680 5679 5677 5676 5674 5672 5671 5669
5751 5750 5749 5750 5749 5747 5745 5743 5740 5735 5731 5734 5730 5729 5724 5722 5717 5714 5711 5706 5702 5699 5696 5693 5690 5687 5684 5681 5678 5676 5674 5673 5671 5669 5667 5665 5664 5662
5750 5749 5747 5747 5747 5746 5745 5742 5739 5735 5729 5731 5729 5726 5720 5717 5714 5711 5708 5704 5701 5696 5693 5689 5686 5682 5679 5676 5673 5671 5669 5667 5664 5662 5660 5659 5657 5655
5749 5748 5747 5747 5744 5743 5742 5740 5737 5735 5730 5726 5725 5722 5718 5714 5711 5707 5705 5703 5699 5693 5689 5685 5682 5678 5675 5672 5669 5666 5663 5661 5658 5656 5654 5652 5650 5647
5748 5746 5745 5744 5742 5741 5739 5738 5737 5735 5731 5726 5723 5720 5716 5712 5707 5704 5701 5697 5696 5691 5685 5681 5678 5674 5670 5667 5664 5661 5658 5655 5653 5650 5647 5645 5643 5640
5747 5745 5744 5742 5740 5738 5737 5735 5733 5730 5727 5724 5721 5717 5713 5709 5704 5700 5697 5694 5692 5689 5684 5679 5674 5670 5667 5663 5660 5656 5653 5649 5647 5644 5641 5639 5636 5634
5744 5743 5742 5740 5737 5734 5734 5732 5729 5726 5724 5721 5717 5714 5710 5705 5701 5699 5695 5691 5688 5685 5681 5677 5673 5669 5664 5660 5655 5651 5648 5644 5641 5638 5635 5632 5630 5627
5740 5739 5739 5736 5733 5729 5727 5725 5723 5721 5720 5717 5714 5710 5707 5704 5700 5697 5692 5688 5683 5682 5677 5675 5672 5668 5664 5660 5654 5648 5643 5640 5636 5632 5629 5626 5624 5621
5737 5735 5735 5735 5729 5727 5723 5719 5718 5715 5713 5712 5710 5708 5705 5703 5697 5692 5688 5685 5681 5680 5673 5670 5668 5665 5662 5657 5650 5645 5640 5635 5631 5627 5624 5621 5618 5616
5732 5731 5729 5728 5726 5721 5719 5717 5716 5714 5711 5708 5707 5705 5703 5699 5693 5689 5685 5680 5676 5674 5670 5666 5665 5661 5658 5653 5645 5641 5635 5630 5626 5622 5619 5615 5612 5610
5728 5727 5725 5722 5718 5714 5712 5711 5710 5709 5706 5703 5699 5697 5693 5690 5686 5683 5679 5675 5671 5669 5666 5662 5661 5657 5653 5649 5642 5635 5631 5626 5621 5618 5614 5610 5607 5604
5723 5722 5718 5716 5711 5707 5706 5705 5703 5702 5700 5697 5693 5689 5687 5684 5680 5677 5676 5672 5668 5665 5663 5658 5655 5651 5646 5644 5639 5632 5626 5621 5616 5612 5609 5605 5601 5599
5718 5717 5716 5709 5704 5701 5699 5699 5697 5694 5693 5691 5688 5685 5683 5680 5677 5674 5671 5669 5665 5662 5660 5653 5650 5646 5642 5639 5635 5630 5625 5620 5614 5609 5604 5600 5596 5594
5711 5711 5710 5703 5698 5695 5693 5691 5688 5685 5686 5685 5683 5680 5677 5675 5672 5669 5665 5662 5659 5656 5652 5648 5644 5640 5636 5632 5629 5626 5621 5617 5612 5608 5603 5597 5592 5589
5705 5702 5698 5695 5692 5690 5687 5684 5681 5681 5680 5678 5676 5674 5672 5669 5665 5661 5657 5653 5650 5648 5645 5640 5636 5633 5629 5626 5623 5620 5615 5611 5608 5604 5600 5596 5592 5588
5696 5694 5690 5688 5686 5685 5682 5679 5678 5677 5674 5672 5670 5667 5665 5661 5658 5654 5650 5647 5644 5641 5637 5633 5629 5625 5623 5619 5616 5613 5609 5605 5602 5599 5596 5594 5591 5587
5689 5688 5687 5685 5683 5682 5680 5678 5674 5670 5667 5665 5662 5660 5657 5654 5651 5648 5644 5640 5638 5635 5632 5628 5624 5619 5615 5612 5609 5606 5602 5599 5596 5593 5588 5587 5586 5584
5680 5682 5680 5679 5678 5676 5674 5671 5668 5665 5662 5659 5656 5654 5651 5648 5644 5641 5638 5634 5631 5629 5626 5622 5617 5612 5608 5605 5601 5599 5597 5594 5591 5587 5584 5581 5580 5579
5672 5674 5674 5673 5672 5670 5668 5665 5662 5660 5656 5653 5650 5647 5645 5642 5639 5635 5631 5629 5626 5623 5619 5615 5611 5607 5604 5602 5599 5593 5591 5589 5585 5582 5580 5577 5575 5574
5667 5667 5667 5666 5664 5663 5661 5658 5656 5653 5649 5646 5644 5641 5639 5636 5633 5630 5627 5623 5620 5617 5613 5610 5606 5602 5599 5597 5594 5590 5584 5582 5580 5577 5575 5573 5571 5568
5662 5661 5660 5658 5656 5654 5653 5652 5649 5646 5643 5640 5638 5635 5633 5631 5628 5625 5621 5615 5612 5610 5607 5605 5601 5595 5593 5590 5586 5584 5581 5575 5574 5571 5569 5567 5566 5564
5656 5654 5652 5650 5648 5646 5644 5642 5641 5638 5636 5634 5632 5630 5628 5625 5622 5618 5616 5612 5609 5606 5603 5600 5595 5591 5588 5585 5583 5580 5577 5573 5568 5564 5561 5560 5560 5559
5649 5647 5645 5643 5641 5639 5637 5635 5633 5632 5629 5627 5626 5623 5621 5619 5616 5613 5610 5607 5604 5601 5597 5594 5591 5588 5585 5582 5579 5576 5573 5569 5566 5562 5558 5555 5552 5550